Rockport, TX

6:48 PM CST on December 10, 2017 (GMT -0600)
Aransas County

Weather History for KRKP - November, 2012

Change the Weather History Date:

Tuesday, November 27, 2012

  Actual Average Record
Temperature  
Mean Temperature 63 °F -  
Max Temperature 73 °F 72 °F 83 °F (1973)
Min Temperature 51 °F 54 °F 27 °F (1992)
Degree Days  
Heating Degree Days 2    
Growing Degree Days 13 (Base 50)    
Moisture  
Dew Point 48 °F    
Average Humidity 59    
Maximum Humidity 71    
Minimum Humidity 45    
Precipitation  
Precipitation 0.00 in - - ()
Sea Level Pressure  
Sea Level Pressure 30.25 in    
Wind  
Wind Speed 13 mph (North)    
Max Wind Speed 20 mph    
Max Gust Speed 26 mph    
Visibility 10 miles    
Events Rain , Thunderstorm    
Averages and records for this station are not official NWS values.
T = Trace of Precipitation, MM = Missing Value Source: NWS Daily Summary

Daily Weather History Graph

Daily Weather History Graph

Search for Another Location

Airport or City:

Trip Planner

Search our weather history database for the weather conditions in past years. The results will help you decide how hot, cold, wet, or windy it might be!

Date:

Astronomy

Nov. 27, 2012 Rise Set
Actual Time 6:59 AM CST 5:32 PM CST
Civil Twilight 6:34 AM CST 5:57 PM CST
Nautical Twilight 6:05 AM CST 6:26 PM CST
Astronomical Twilight 5:37 AM CST 6:54 PM CST
Moon 5:03 PM CST (11/27) 6:07 AM CST (11/27)
Length of Visible Light 11h 23m
Length of Day
10h 32m
Waxing Gibbous, 99% of the Moon is Illuminated
Nov 27
Waxing Gibbous
Nov 28
Full
Dec 6
Last Quarter
Dec 13
New
Dec 19
First Quarter

Hourly Weather History & Observations

Time (CST) Temp. Dew Point Humidity Pressure Visibility Wind Dir Wind Speed Gust Speed Precip Events Conditions
12:53 AM 73.0 °F 60.1 °F 64% 30.09 in 10.0 mi North 13.8 mph - 0.00 in Rain , Thunderstorm Light Rain
1:23 AM 71.6 °F 60.8 °F 69% 30.12 in 10.0 mi WNW 8.1 mph - 0.00 in   Mostly Cloudy
1:53 AM 70.0 °F 60.1 °F 71% 30.11 in 10.0 mi North 6.9 mph - 0.00 in Rain Light Rain
2:53 AM 64.9 °F 52.0 °F 63% 30.11 in 10.0 mi North 12.7 mph 21.9 mph 0.00 in   Overcast
3:53 AM 64.0 °F 48.9 °F 58% 30.12 in 10.0 mi North 17.3 mph 26.5 mph N/A   Clear
4:53 AM 63.0 °F 48.0 °F 58% 30.14 in 10.0 mi NNW 17.3 mph - N/A   Mostly Cloudy
5:53 AM 61.0 °F 48.9 °F 64% 30.19 in 10.0 mi North 19.6 mph - N/A   Partly Cloudy
6:53 AM 59.0 °F 46.0 °F 62% 30.22 in 10.0 mi North 18.4 mph 24.2 mph N/A   Partly Cloudy
7:53 AM 57.9 °F 44.1 °F 60% 30.25 in 10.0 mi NNE 16.1 mph 25.3 mph N/A   Overcast
8:53 AM 55.9 °F 45.0 °F 67% 30.31 in 10.0 mi North 15.0 mph 23.0 mph N/A   Scattered Clouds
9:53 AM 60.1 °F 45.0 °F 57% 30.32 in 10.0 mi North 18.4 mph - N/A   Partly Cloudy
10:53 AM 63.0 °F 46.0 °F 54% 30.32 in 10.0 mi North 13.8 mph - N/A   Clear
11:53 AM 64.9 °F 46.0 °F 50% 30.30 in 10.0 mi North 11.5 mph - N/A   Clear
12:53 PM 66.9 °F 46.9 °F 49% 30.28 in 10.0 mi NNW 10.4 mph - N/A   Clear
1:53 PM 68.0 °F 48.0 °F 49% 30.26 in 10.0 mi NNW 10.4 mph - N/A   Clear
2:53 PM 69.1 °F 46.9 °F 45% 30.26 in 10.0 mi NNW 10.4 mph - N/A   Clear
3:53 PM 68.0 °F 46.9 °F 47% 30.27 in 10.0 mi NNW 11.5 mph - N/A   Clear
4:53 PM 66.0 °F 46.0 °F 48% 30.28 in 10.0 mi North 8.1 mph - N/A   Clear
5:53 PM 63.0 °F 46.0 °F 54% 30.29 in 10.0 mi North 9.2 mph - N/A   Clear
6:53 PM 61.0 °F 46.0 °F 58% 30.30 in 10.0 mi North 11.5 mph - N/A   Clear
7:53 PM 57.9 °F 44.1 °F 60% 30.33 in 10.0 mi North 11.5 mph - N/A   Clear
8:53 PM 55.9 °F 43.0 °F 62% 30.34 in 10.0 mi NNE 9.2 mph - N/A   Clear
9:53 PM 55.0 °F 41.0 °F 59% 30.35 in 10.0 mi NNE 10.4 mph - N/A   Clear
10:53 PM 53.1 °F 42.1 °F 66% 30.35 in 10.0 mi NNE 10.4 mph - N/A   Clear
11:53 PM 51.1 °F 42.1 °F 71% 30.35 in 10.0 mi NNE 9.2 mph - N/A   Clear